Temperature
20 18 18 18 18 19 20 20 19 19 20 21 20 21 21 20 20 20 20 21 21 22 21 21 20 20 20 20 19 19 18 17 17 16 16 16 15 15 15 15 15 15 14 14
17 18 18 18 18 18 18 19 19 20 20 20 21 20 20 20 19 19 19 19 20 20 21 20 20 19 19 19 19 18 18 17 16 16 16 16 15 15 15 15 14 14 14 14
19 19 20 20 20 19 19 18 20 21 20 17 20 19 19 17 16 16 15 15 16 17 18 18 18 18 18 18 18 18 17 17 16 15 15 15 14 14 13 13 13 13 13 13
18 18 19 20 19 19 20 20 20 20 18 16 18 18 18 14 13 12 12 12 12 14 15 16 16 17 17 17 17 17 16 15 15 14 14 14 14 13 13 13 13 13 13 13
19 20 21 21 21 20 19 18 18 18 17 16 16 16 15 13 13 11 10 10 10 12 15 16 16 16 16 16 15 15 14 14 13 13 13 13 13 13 13 13 13 12 12 11
19 20 21 21 19 19 17 16 15 13 13 15 17 16 14 11 11 12 10 10 10 12 13 14 14 14 14 13 13 13 13 13 13 13 13 13 13 12 12 11 11 10 10 10
20 20 19 20 20 18 17 15 14 15 14 15 15 14 12 10 10 10 9 9 10 12 13 13 13 13 13 13 13 13 13 13 13 12 12 11 11 10 10 9 9 9 9 9
18 18 19 20 19 18 17 16 15 15 15 14 13 12 10 10 10 10 9 10 11 12 12 12 12 12 13 13 13 12 12 12 11 11 10 10 10 9 9 9 8 8 8 8
17 18 20 19 18 17 16 15 14 12 13 14 13 11 11 11 9 10 9 10 10 11 11 12 12 12 12 12 12 11 11 11 10 10 10 9 9 9 8 8 8 8 7 7
16 17 18 19 18 16 15 13 11 12 12 13 14 12 10 10 9 9 8 8 10 11 11 11 12 12 12 11 11 11 10 10 10 9 9 9 8 8 8 7 7 7 7 6
16 16 17 17 17 17 15 14 11 10 11 12 12 10 9 8 8 8 7 8 9 10 11 11 11 11 11 10 10 10 9 9 9 9 8 8 8 7 7 7 6 6 5 4
13 12 13 14 13 14 13 13 11 12 12 10 10 9 9 8 7 7 7 8 9 10 10 10 10 10 10 9 9 9 9 8 8 8 8 7 7 7 6 5 4 3 2 2
12 12 12 13 14 13 12 12 10 9 8 8 10 8 8 7 7 7 8 8 9 9 9 10 10 9 9 9 9 8 8 7 7 7 7 7 6 5 4 3 2 1 0 1
10 10 12 13 12 11 12 12 11 10 9 10 10 8 8 7 7 7 8 8 9 9 9 9 9 9 9 8 8 7 7 7 6 6 6 5 4 3 2 0 -0 -0 0 0
9 10 10 10 12 12 12 12 12 11 10 10 10 7 7 7 7 8 8 9 9 9 9 9 9 8 8 8 7 7 6 6 5 5 4 3 2 1 -0 -0 0 0 1 0
8 9 10 10 11 11 10 10 9 9 9 8 6 6 7 8 8 8 9 9 9 9 9 8 8 8 7 6 6 5 5 4 4 3 2 1 1 0 0 0 1 1 1 1
6 8 8 8 10 11 9 9 8 7 7 7 7 6 6 7 8 8 9 9 8 8 8 8 7 6 5 5 4 3 3 2 2 1 1 1 1 1 1 1 1 1 1 1
7 6 5 7 10 9 8 8 8 7 7 7 6 6 7 8 9 9 9 8 8 8 7 6 5 4 4 3 3 2 1 1 1 1 1 1 1 1 1 1 1 1 1 1
6 6 5 6 7 7 7 8 7 6 6 7 6 7 8 8 7 8 9 8 8 7 6 5 4 3 3 2 1 1 0 0 0 1 1 1 1 1 1 1 1 1 1 1
6 6 6 6 7 6 7 8 8 7 6 7 7 7 7 6 4 6 8 8 7 6 4 3 3 2 2 1 0 -0 0 0 1 1 1 1 1 1 1 1 1 1 1 1
7 6 5 5 6 7 8 9 9 7 7 8 8 8 8 6 6 8 8 7 5 4 3 3 2 1 1 0 0 0 0 0 1 1 1 1 1 1 1 1 1 1 1 1
7 6 5 5 7 7 8 8 7 7 9 9 9 8 8 8 8 8 7 6 4 3 2 2 1 1 0 0 0 0 0 1 1 1 1 1 1 1 1 1 1 1 1 1
6 6 5 6 6 7 9 9 10 10 9 9 9 9 8 8 8 7 6 5 3 2 2 1 0 0 0 1 0 1 1 1 2 2 2 2 1 1 1 1 1 1 1 0
6 5 5 5 7 7 8 9 9 9 9 9 9 8 8 7 7 6 5 3 2 1 0 -0 -0 0 1 1 1 1 2 2 2 2 2 2 2 1 1 1 1 1 0 -0
6 5 5 5 7 7 8 9 9 9 9 9 8 8 7 6 6 4 3 2 1 -0 -1 -0 0 1 1 1 2 2 3 3 3 3 2 2 2 1 1 1 1 1 -0 -1
5 5 5 5 6 6 8 8 8 8 8 8 7 7 6 5 4 3 2 1 -0 -1 -0 0 1 1 2 2 3 3 4 4 3 3 3 2 2 2 2 2 1 1 -0 -1
Wind_Speed
5 4 4 7 7 6 3 2 5 7 5 1 2 2 1 3 5 7 7 7 8 9 2 5 6 8 8 7 6 6 7 6 5 3 3 4 4 4 5 7 11 13 13 12
5 5 9 6 4 5 5 4 5 5 5 2 3 5 5 5 4 4 4 4 5 3 3 6 9 8 9 9 9 9 8 7 5 4 4 4 5 4 3 3 5 8 8 8
7 7 2 4 3 4 5 7 5 4 2 8 5 7 7 9 10 12 11 9 9 7 7 8 10 10 10 10 10 9 9 8 7 6 6 4 3 2 2 2 2 4 5 5
6 7 3 3 5 8 4 4 6 6 6 4 5 1 5 6 10 12 12 12 12 12 12 12 13 13 13 11 11 11 11 10 8 7 7 6 4 2 0 1 2 3 5 6
6 3 1 2 4 8 7 4 5 5 6 4 6 3 6 8 9 10 10 12 12 12 14 16 15 14 12 10 9 8 8 7 5 6 5 6 4 0 2 2 4 5 5 7
6 2 1 1 4 5 8 8 9 7 6 4 1 2 4 6 7 3 7 10 11 12 14 15 13 12 11 8 7 6 7 6 5 5 5 3 2 2 3 5 5 5 4 5
2 3 4 1 6 6 7 7 5 5 4 3 1 5 2 7 7 3 5 7 9 9 10 11 10 9 7 6 5 5 6 6 5 5 5 5 4 3 4 4 5 6 6 6
6 4 4 3 5 7 5 9 9 6 5 4 4 4 2 3 6 6 6 7 8 8 7 8 7 7 6 6 6 5 5 4 5 5 6 6 7 5 4 5 6 7 7 8
9 6 1 4 3 9 7 4 7 7 4 1 1 4 3 5 7 6 7 7 7 6 7 7 7 7 6 6 6 5 5 6 8 8 8 8 8 7 6 6 6 6 7 8
10 6 3 2 7 7 6 9 7 7 7 5 4 6 6 3 1 3 5 6 6 6 7 7 6 7 7 6 7 8 8 7 7 7 7 7 6 6 7 7 8 8 8 8
5 8 1 5 3 3 5 5 5 5 6 7 6 6 3 4 3 2 3 4 5 6 6 6 6 7 7 7 7 7 7 7 7 8 7 8 8 8 8 8 9 10 10 11
4 7 5 4 4 4 6 5 6 6 5 5 5 5 1 3 2 3 3 3 3 4 4 4 5 5 6 6 6 7 7 7 8 8 8 9 9 10 10 11 11 10 11 12
7 8 7 2 2 6 7 4 5 6 5 5 5 5 3 4 4 2 3 1 2 4 5 4 4 5 6 6 7 8 8 8 9 9 10 10 10 10 11 12 11 11 12 13
6 6 6 9 6 6 5 3 4 5 4 4 6 7 6 4 3 2 1 2 4 6 6 5 5 6 7 7 8 9 9 9 10 10 10 11 11 11 11 11 11 11 12 12
6 7 6 6 6 6 5 3 3 3 6 6 4 8 7 6 4 3 2 4 6 8 8 7 6 5 6 8 8 9 10 10 11 11 12 11 11 11 11 11 11 11 11 10
5 7 5 4 4 7 5 5 6 3 4 6 7 4 2 3 1 3 5 6 7 9 9 8 5 5 7 9 10 11 11 12 11 12 13 13 12 12 11 12 11 10 9 8
5 6 5 3 2 5 2 1 4 4 3 7 6 6 5 3 3 4 6 7 8 9 9 7 4 6 8 9 9 11 12 12 13 13 13 13 12 12 12 11 10 8 7 8
7 6 5 5 4 5 3 2 7 8 4 3 6 6 6 5 4 5 6 8 9 8 6 4 5 7 7 7 9 11 12 12 13 13 12 12 11 11 10 9 8 8 8 9
5 8 6 5 6 4 2 3 5 6 2 2 6 6 5 2 4 6 8 6 6 4 2 2 3 5 7 9 10 12 12 12 12 11 11 11 10 10 9 9 9 8 8 9
8 7 6 5 6 9 7 6 6 6 2 6 6 7 5 3 1 6 6 2 1 3 2 1 4 5 7 9 9 11 11 11 11 11 11 10 9 9 9 10 9 7 6 7
5 5 5 5 4 4 4 6 7 5 6 8 8 8 6 6 8 5 1 3 3 2 0 2 5 6 7 8 8 10 10 11 11 10 9 9 9 9 8 8 6 6 7 8
7 6 5 5 4 6 6 7 8 6 5 6 7 7 6 7 7 3 2 4 2 1 2 4 5 6 7 7 7 9 10 11 10 8 8 9 9 9 8 8 8 8 8 8
3 5 6 6 5 2 7 7 6 6 6 6 6 6 5 5 3 2 3 2 1 2 3 4 5 6 7 6 5 8 10 11 10 8 8 8 8 8 8 8 9 7 8 7
2 3 5 5 3 4 5 5 5 6 6 6 6 3 2 1 2 3 2 0 1 3 3 3 5 6 6 6 6 7 9 9 8 7 7 7 7 8 8 7 6 6 7 7
4 4 5 4 3 5 3 4 5 5 5 4 4 4 4 5 3 2 1 0 1 2 3 3 4 4 6 7 9 9 9 8 7 7 6 6 6 6 7 7 5 5 4 4
1 5 6 5 6 6 5 3 4 6 6 6 6 5 4 4 3 2 1 1 1 2 3 3 4 5 6 8 10 11 9 7 6 5 5 4 4 5 6 6 5 7 7 10
Wind_Direction
37 65 247 235 199 200 191 238 281 276 299 200 220 290 311 159 172 210 237 247 248 253 259 142 130 110 97 82 71 51 52 55 69 76 85 85 78 74 64 59 58 56 51 46
36 274 245 229 198 192 198 234 253 280 353 82 76 7 3 44 31 353 325 331 324 328 67 99 103 97 99 94 86 81 79 74 77 92 97 102 114 103 109 83 63 56 53 47
201 240 213 195 206 186 194 186 194 192 49 32 58 9 27 19 18 26 32 35 28 48 68 72 76 77 80 80 87 93 91 88 90 106 105 100 89 70 39 19 17 10 23 28
226 257 245 239 219 157 196 198 144 116 89 11 47 357 343 12 31 25 25 32 34 41 57 64 69 71 75 81 89 94 98 100 107 113 111 112 109 102 325 301 308 330 1 4
233 241 221 224 223 168 169 78 80 82 101 61 36 83 312 15 23 17 16 32 37 46 63 69 71 77 79 82 86 91 92 83 69 67 80 88 83 81 290 313 338 344 341 338
240 279 175 201 62 108 116 73 50 46 67 86 72 145 312 353 326 11 19 33 43 54 63 66 65 70 70 67 71 74 78 61 36 42 48 68 73 352 342 344 337 330 318 310
268 346 351 89 104 54 86 92 45 17 31 234 351 110 322 317 338 76 81 63 54 55 65 69 67 66 67 64 56 52 62 50 33 40 38 36 33 17 351 336 325 320 316 311
172 252 309 5 159 148 146 139 156 182 193 265 25 96 297 358 32 52 66 72 68 61 63 65 57 48 39 36 34 41 54 50 35 33 28 31 32 23 3 345 325 312 304 302
173 206 301 30 63 122 122 110 143 127 147 159 186 130 157 61 41 40 53 58 51 42 41 41 31 27 26 33 34 33 36 33 28 27 30 33 23 9 345 325 311 305 303 306
153 171 243 345 64 28 117 132 102 123 148 210 223 190 193 176 64 37 35 38 31 28 32 27 21 20 24 32 32 32 38 39 30 25 18 5 351 339 325 317 314 308 301 297
132 142 116 39 57 153 99 80 103 118 152 165 208 240 198 178 190 131 41 37 38 31 23 19 19 23 31 36 37 34 25 15 7 1 354 349 342 335 325 313 306 304 298 296
112 115 94 36 347 37 100 120 139 150 197 173 180 224 156 120 100 119 100 85 49 27 15 15 19 25 31 27 20 14 7 2 353 346 344 338 331 325 315 304 298 300 300 298
130 114 107 79 325 23 53 53 97 104 104 138 165 224 151 100 92 112 133 130 349 351 353 353 358 5 6 3 360 358 357 350 342 338 331 322 314 309 306 301 297 300 303 303
108 92 140 177 190 140 101 61 92 105 129 177 198 170 171 153 156 178 223 299 317 322 327 335 344 350 352 350 349 347 343 339 332 325 316 310 305 304 304 303 301 305 308 307
88 97 83 73 87 103 117 151 163 155 174 181 208 164 176 176 191 227 283 321 329 330 329 333 339 340 341 341 340 339 333 328 324 319 316 312 309 306 308 310 311 313 315 318
71 107 104 74 73 107 95 89 108 92 105 105 100 107 153 158 171 305 315 317 310 305 305 308 322 343 342 339 336 334 330 327 325 322 319 318 318 320 320 318 317 318 319 322
79 105 102 129 105 87 103 316 146 116 100 140 157 180 166 170 238 265 269 260 265 274 283 296 334 352 340 331 326 323 321 322 324 320 319 320 321 322 321 323 326 326 325 325
110 93 102 124 129 192 273 357 126 103 63 110 135 155 175 199 246 269 252 246 260 274 294 340 4 343 326 315 316 316 318 320 319 318 319 322 325 325 329 336 342 339 329 327
106 121 115 127 148 141 173 159 141 119 138 183 155 183 215 242 344 301 269 247 255 288 7 35 345 312 312 315 318 321 320 320 320 323 328 332 336 338 341 346 342 334 332 337
57 90 112 130 151 203 204 172 156 110 157 231 195 206 217 140 238 272 284 299 60 73 73 346 309 310 311 313 321 324 324 326 329 332 335 339 345 348 347 341 335 337 345 349
95 77 106 131 158 225 172 140 134 150 209 206 201 214 209 198 221 250 19 87 98 97 192 301 314 308 304 313 327 330 332 335 333 335 340 347 354 353 353 349 350 358 1 357
154 141 147 138 157 214 173 140 164 184 174 173 192 209 214 233 259 280 116 121 95 45 327 319 309 303 306 319 333 333 333 330 330 340 354 359 4 8 6 6 5 7 5 0
156 175 163 161 189 183 160 169 177 148 150 178 189 203 213 238 255 142 132 117 38 334 304 299 300 307 312 322 330 324 322 327 332 348 4 6 8 9 8 10 5 360 3 6
112 110 104 93 91 126 158 133 129 159 177 190 186 185 177 171 122 130 134 106 325 305 304 315 319 321 317 320 320 309 311 321 335 350 357 2 8 5 4 4 4 6 5 3
142 107 96 103 132 110 127 141 149 170 176 145 108 90 103 123 132 149 159 278 297 307 326 328 325 320 317 321 318 312 312 321 332 340 347 352 358 2 1 -0 359 5 4 3
183 143 140 183 191 159 183 175 166 173 179 158 131 104 95 124 144 139 137 317 313 333 343 340 340 335 325 318 311 310 310 309 310 318 324 332 340 352 359 352 354 19 29 23
Height
1496 1503 1508 1507 1507 1507 1508 1511 1515 1510 1500 1500 1501 1499 1497 1496 1497 1499 1501 1503 1505 1506 1509 1512 1516 1519 1523 1528 1533 1536 1537 1537 1537 1538 1539 1540 1540 1540 1540 1540 1540 1540 1540 1539
1503 1506 1499 1499 1501 1506 1509 1513 1513 1505 1501 1500 1501 1503 1500 1501 1503 1504 1505 1504 1504 1504 1506 1509 1512 1516 1521 1525 1530 1533 1535 1536 1537 1537 1538 1538 1538 1537 1538 1538 1538 1537 1537 1536
1503 1499 1494 1496 1499 1504 1506 1509 1506 1505 1503 1506 1505 1511 1508 1509 1507 1507 1506 1506 1504 1503 1504 1506 1510 1514 1519 1523 1528 1530 1533 1535 1537 1537 1537 1537 1536 1536 1536 1536 1536 1534 1533 1531
1498 1493 1493 1494 1497 1499 1504 1498 1500 1504 1512 1523 1516 1527 1517 1521 1519 1517 1514 1510 1508 1507 1507 1508 1511 1515 1519 1524 1527 1530 1532 1534 1536 1537 1536 1536 1535 1535 1534 1533 1532 1530 1529 1527
1495 1489 1489 1492 1491 1493 1499 1499 1503 1507 1513 1525 1524 1530 1528 1524 1525 1526 1522 1517 1514 1512 1511 1512 1515 1518 1522 1526 1529 1531 1532 1534 1536 1536 1535 1534 1533 1533 1531 1530 1528 1526 1524 1522
1489 1486 1486 1487 1488 1490 1496 1505 1512 1520 1526 1536 1526 1531 1538 1538 1535 1530 1528 1523 1520 1518 1518 1519 1522 1525 1527 1530 1532 1533 1534 1534 1534 1534 1533 1532 1531 1529 1528 1526 1523 1521 1519 1516
1492 1488 1486 1485 1490 1494 1499 1515 1535 1537 1543 1539 1529 1537 1546 1541 1536 1533 1532 1529 1526 1525 1525 1527 1529 1531 1533 1535 1535 1535 1534 1534 1533 1532 1530 1529 1527 1526 1524 1521 1519 1516 1512 1508
1501 1502 1489 1486 1489 1495 1501 1509 1532 1540 1543 1541 1536 1541 1548 1540 1538 1537 1535 1533 1532 1532 1532 1533 1534 1536 1536 1536 1536 1535 1534 1533 1531 1530 1528 1526 1524 1522 1520 1517 1514 1510 1506 1501
1500 1500 1487 1486 1487 1491 1502 1509 1513 1531 1537 1541 1541 1545 1542 1540 1540 1539 1538 1536 1536 1536 1536 1536 1537 1537 1537 1536 1535 1534 1533 1531 1530 1528 1525 1523 1521 1518 1515 1512 1508 1504 1499 1494
1489 1498 1491 1488 1488 1493 1496 1506 1522 1531 1545 1547 1538 1542 1545 1541 1541 1540 1540 1539 1538 1538 1538 1538 1537 1537 1536 1535 1534 1533 1531 1530 1528 1525 1523 1520 1517 1514 1510 1506 1501 1496 1490 1485
1484 1497 1499 1496 1498 1498 1503 1510 1519 1529 1532 1542 1548 1548 1539 1540 1540 1540 1540 1540 1539 1539 1539 1538 1537 1537 1536 1535 1534 1533 1531 1528 1525 1522 1519 1516 1512 1507 1503 1498 1492 1486 1480 1475
1487 1498 1509 1507 1504 1500 1503 1509 1517 1525 1530 1535 1540 1548 1539 1540 1540 1540 1540 1540 1540 1540 1540 1539 1538 1538 1537 1535 1533 1531 1528 1525 1521 1518 1514 1510 1505 1499 1494 1488 1482 1476 1471 1466
1486 1499 1516 1517 1514 1508 1509 1511 1516 1523 1533 1540 1541 1547 1539 1540 1540 1541 1541 1542 1542 1541 1540 1539 1538 1536 1535 1533 1530 1528 1525 1521 1517 1513 1507 1502 1496 1490 1484 1478 1473 1468 1463 1459
1482 1498 1505 1513 1511 1511 1513 1513 1515 1522 1533 1533 1532 1539 1540 1540 1541 1541 1542 1542 1542 1541 1539 1538 1536 1534 1532 1530 1528 1524 1521 1516 1511 1505 1499 1493 1488 1481 1476 1471 1466 1462 1459 1455
1483 1501 1506 1508 1506 1509 1513 1515 1516 1519 1524 1529 1528 1536 1538 1539 1540 1541 1541 1541 1540 1539 1538 1537 1535 1533 1530 1528 1524 1520 1515 1510 1504 1498 1492 1486 1481 1475 1471 1466 1462 1459 1456 1453
1488 1500 1506 1512 1511 1512 1518 1520 1520 1523 1524 1530 1535 1538 1536 1537 1538 1538 1539 1539 1539 1538 1537 1536 1534 1531 1528 1524 1520 1515 1510 1504 1498 1493 1487 1482 1477 1472 1468 1465 1461 1458 1456 1454
1495 1501 1514 1520 1514 1514 1525 1523 1523 1526 1526 1528 1532 1536 1535 1536 1537 1538 1538 1538 1538 1537 1535 1533 1531 1528 1525 1521 1516 1510 1505 1499 1494 1489 1485 1480 1476 1472 1469 1465 1462 1460 1458 1455
1495 1507 1519 1523 1521 1529 1530 1522 1522 1526 1529 1529 1530 1532 1533 1535 1537 1537 1537 1536 1535 1534 1532 1530 1527 1525 1522 1517 1512 1507 1502 1497 1492 1488 1485 1481 1477 1473 1470 1467 1464 1462 1459 1455
1492 1504 1519 1526 1526 1529 1529 1525 1525 1528 1533 1531 1532 1533 1534 1535 1536 1535 1534 1533 1532 1531 1529 1527 1524 1522 1518 1514 1509 1505 1500 1496 1492 1489 1485 1482 1478 1475 1472 1470 1467 1463 1460 1456
1498 1501 1514 1522 1526 1530 1523 1521 1522 1527 1535 1532 1532 1532 1533 1534 1539 1535 1532 1530 1529 1527 1526 1524 1522 1519 1515 1512 1508 1504 1500 1497 1493 1490 1487 1483 1480 1477 1474 1472 1469 1465 1462 1458
1504 1508 1516 1521 1523 1519 1517 1518 1522 1532 1531 1528 1529 1530 1531 1532 1532 1531 1529 1527 1526 1525 1523 1521 1519 1516 1513 1511 1508 1505 1502 1498 1495 1491 1488 1485 1481 1478 1476 1473 1471 1468 1465 1461
1502 1509 1513 1518 1518 1521 1515 1518 1522 1524 1523 1525 1527 1528 1529 1529 1529 1528 1526 1525 1523 1522 1521 1519 1516 1514 1512 1511 1509 1506 1503 1500 1497 1493 1489 1486 1483 1481 1479 1477 1474 1471 1468 1464
1500 1502 1504 1508 1513 1508 1511 1514 1517 1520 1522 1525 1526 1527 1527 1527 1526 1525 1524 1522 1521 1520 1518 1516 1514 1513 1512 1511 1510 1508 1506 1502 1499 1496 1492 1489 1487 1485 1483 1480 1477 1474 1470 1466
1500 1500 1503 1507 1508 1509 1512 1514 1517 1520 1522 1524 1525 1526 1526 1525 1525 1523 1522 1520 1519 1517 1516 1514 1513 1512 1513 1513 1512 1510 1508 1505 1502 1499 1496 1494 1491 1489 1487 1484 1480 1477 1472 1467
1498 1500 1503 1507 1509 1510 1512 1514 1517 1519 1521 1522 1523 1524 1524 1524 1523 1521 1520 1518 1516 1515 1514 1513 1513 1514 1514 1514 1514 1512 1510 1507 1505 1502 1500 1498 1495 1493 1490 1486 1483 1479 1475 1470
1497 1500 1503 1507 1506 1508 1511 1514 1516 1518 1519 1521 1522 1522 1522 1522 1520 1519 1517 1515 1515 1514 1513 1514 1515 1516 1516 1516 1515 1513 1511 1509 1506 1504 1502 1500 1498 1495 1492 1488 1485 1481 1478 1474